Location: Beuvrequen
(50.8014°N, 1.6652°E)
Time: 04:01:02
(UTC+00:00)

SME Rocket - Pass Details

Date: 16 October 2021
Orbit: 550 x 2651 km, 99.9° (Epoch: 05 December)

Event Time Altitude Azimuth Distance (km) Brightness Sun altitude
Rises 17:35:31 0° 14° (NNE) 2,740 6.2 -6.6°
Reaches altitude 10° 17:37:29 10° 11° (N) 1,864 5.4 -6.9°
Maximum altitude 17:41:16 63° 290° (WNW) 697 3.6 -7.5°
Drops below altitude 10° 17:45:56 10° 210° (SSW) 2,297 6.5 -8.2°
Sets 17:48:36 0° 207° (SSW) 3,455 7.3 -8.6°
